TimeEDT,TemperatureF,Dew PointF,Humidity,Sea Level PressureIn,VisibilityMPH,Wind Direction,Wind SpeedMPH,Gust SpeedMPH,PrecipitationIn,Events,Conditions,WindDirDegrees,DateUTC
12:53 AM,75.9,75.0,97,30.08,10.0,ENE,3.5,-,N/A,,Mostly Cloudy,70,2013-06-16 04:53:00
1:53 AM,75.9,75.0,97,30.07,10.0,ESE,6.9,-,N/A,,Mostly Cloudy,110,2013-06-16 05:53:00
2:53 AM,75.0,75.0,100,30.06,10.0,ESE,8.1,16.1,0.00,,Overcast,110,2013-06-16 06:53:00
3:53 AM,75.0,75.0,100,30.05,10.0,East,4.6,-,0.00,,Overcast,90,2013-06-16 07:53:00
4:53 AM,75.0,75.0,100,30.05,10.0,Variable,3.5,-,N/A,,Overcast,0,2013-06-16 08:53:00
5:53 AM,75.0,75.0,100,30.06,10.0,Variable,4.6,-,N/A,,Overcast,0,2013-06-16 09:53:00
6:53 AM,75.0,75.0,100,30.07,10.0,Calm,Calm,-,N/A,,Overcast,0,2013-06-16 10:53:00
7:53 AM,75.0,75.0,100,30.08,10.0,Calm,Calm,-,N/A,,Overcast,0,2013-06-16 11:53:00
8:53 AM,78.1,75.0,90,30.09,10.0,ESE,3.5,-,N/A,,Overcast,110,2013-06-16 12:53:00
9:53 AM,84.0,73.9,72,30.09,10.0,Variable,6.9,-,N/A,,Overcast,0,2013-06-16 13:53:00
10:24 AM,84.2,75.2,74,30.08,10.0,SSE,5.8,-,N/A,,Scattered Clouds,160,2013-06-16 14:24:00
10:53 AM,84.9,73.9,69,30.08,10.0,SSE,5.8,-,N/A,,Scattered Clouds,150,2013-06-16 14:53:00
11:53 AM,88.0,73.9,63,30.09,10.0,Calm,Calm,-,N/A,,Scattered Clouds,0,2013-06-16 15:53:00
12:53 PM,86.0,77.0,74,30.07,10.0,SW,8.1,-,N/A,,Mostly Cloudy,220,2013-06-16 16:53:00
1:53 PM,89.1,77.0,67,30.06,10.0,WSW,9.2,-,N/A,,Mostly Cloudy,240,2013-06-16 17:53:00
2:53 PM,90.0,75.9,63,30.05,10.0,West,8.1,-,N/A,,Mostly Cloudy,280,2013-06-16 18:53:00
3:53 PM,90.0,72.0,55,30.04,10.0,WSW,10.4,-,N/A,,Mostly Cloudy,250,2013-06-16 19:53:00
4:53 PM,88.0,77.0,70,30.03,9.0,West,11.5,-,0.00,Rain,Light Rain,260,2013-06-16 20:53:00
5:25 PM,87.8,77.0,70,30.04,1.0,NNW,10.4,-,0.00,Rain,Rain,330,2013-06-16 21:25:00
5:42 PM,87.8,77.0,70,30.03,5.0,West,12.7,21.9,0.08,Rain,Light Rain,280,2013-06-16 21:42:00
5:53 PM,84.9,78.1,80,30.02,7.0,NNW,10.4,-,0.08,,Overcast,330,2013-06-16 21:53:00
6:53 PM,86.0,73.9,67,30.04,10.0,SSW,6.9,-,N/A,,Overcast,210,2013-06-16 22:53:00
7:53 PM,82.0,73.0,74,30.05,10.0,Calm,Calm,-,N/A,,Mostly Cloudy,0,2013-06-16 23:53:00
8:53 PM,79.0,73.9,84,30.05,10.0,North,4.6,-,N/A,,Scattered Clouds,360,2013-06-17 00:53:00
9:53 PM,78.1,73.9,87,30.06,10.0,ENE,4.6,-,N/A,,Scattered Clouds,70,2013-06-17 01:53:00
10:53 PM,81.0,75.9,85,30.08,10.0,NNE,4.6,-,N/A,,Scattered Clouds,30,2013-06-17 02:53:00
11:53 PM,79.0,73.0,82,30.09,10.0,ESE,4.6,-,N/A,,Mostly Cloudy,110,2013-06-17 03:53:00